Temp
47 47 47 47 48 48 48 48 49 49 49 49 48 48 48 48 49 48 49 49 50 50 49 48 49 49 49 48 48 48 49 49 49 49 49 49 49 49 49 48 47 47 46 46 45 46 47 46 49 50 51 51 50 50 50 51 52 51 50 51 51 52
46 46 46 46 47 47 47 48 48 49 49 49 48 48 48 48 48 48 48 48 48 49 48 48 48 48 48 48 48 49 48 48 48 48 47 47 47 46 45 44 43 44 44 44 44 44 43 45 45 46 46 47 47 49 49 49 49 48 48 49 49 50
46 47 47 47 47 47 48 48 48 48 48 48 48 47 47 47 47 47 47 47 48 47 47 47 47 47 48 48 47 47 47 47 46 46 45 43 44 43 43 42 42 42 42 42 44 43 43 44 44 45 45 44 44 45 46 47 47 47 46 47 47 47
46 45 46 44 46 47 47 48 48 47 47 47 47 47 46 46 47 47 47 47 47 46 46 46 45 46 46 46 45 44 44 43 44 43 42 41 42 41 42 42 42 41 42 42 42 42 42 41 43 41 42 42 43 43 46 46 45 45 45 45 45 45
44 44 45 45 46 46 46 46 46 46 46 46 45 45 45 45 46 47 47 47 46 45 44 44 43 43 43 43 42 42 42 42 40 40 39 40 41 42 42 42 42 42 41 40 40 40 39 40 38 38 39 40 41 43 43 44 44 43 43 43 43 44
44 45 46 46 46 45 46 45 45 45 44 44 44 43 43 44 44 45 45 44 44 43 43 43 42 42 42 41 41 40 39 38 39 39 40 40 41 41 41 41 41 39 39 38 38 37 37 38 37 37 37 39 38 40 42 42 42 42 42 42 42 42
45 46 45 45 45 44 44 44 44 43 42 42 42 42 42 42 42 43 43 42 42 42 42 41 40 40 40 40 39 39 39 39 39 40 39 39 39 39 39 39 37 37 38 40 38 39 38 38 38 38 37 37 36 37 39 41 41 42 41 41 42 40
45 45 44 45 44 44 43 43 42 41 41 42 41 40 40 41 41 42 42 41 40 40 40 40 40 40 39 39 39 39 39 39 38 38 38 36 38 36 37 36 36 36 37 36 37 37 37 37 36 36 36 36 35 36 37 37 38 39 40 41 41 41
45 45 44 43 42 41 41 41 42 40 40 40 40 39 40 40 40 41 41 40 40 40 39 39 39 39 38 38 38 38 38 37 36 35 36 35 35 35 35 35 35 36 35 37 36 37 38 38 37 37 37 36 35 35 36 36 36 37 38 39 39 39
44 43 43 42 42 41 41 40 40 40 39 39 39 39 39 41 41 41 40 40 39 39 38 38 37 37 38 36 36 36 36 35 34 34 34 34 34 35 34 35 36 35 35 36 37 38 38 38 38 37 36 35 35 36 35 35 36 36 36 36 36 37
44 43 42 42 41 41 41 41 41 41 40 39 38 37 38 38 40 40 39 38 38 38 37 37 37 36 36 35 35 34 34 34 33 33 33 33 34 37 34 35 35 36 37 37 37 37 38 39 40 40 40 39 38 36 36 36 35 35 35 35 35 35
44 42 42 41 42 41 41 41 40 39 39 38 37 37 37 38 38 38 38 37 37 36 36 36 35 35 34 34 34 34 33 33 33 33 33 34 34 34 35 35 35 35 36 36 37 36 38 39 40 40 41 41 39 36 36 35 34 34 34 34 34 35
43 42 42 42 42 41 41 40 39 39 38 37 36 37 36 36 37 37 36 36 35 35 35 34 35 34 34 34 33 33 33 34 34 33 34 34 34 34 35 35 35 35 35 35 35 36 37 38 39 40 42 43 43 39 35 34 34 33 33 33 34 34
43 42 41 41 40 40 40 39 38 37 37 36 35 35 35 34 35 35 35 35 34 34 34 34 34 33 33 33 33 33 33 33 33 33 33 33 33 34 33 33 33 33 33 34 33 34 35 36 38 41 42 42 42 41 37 35 34 34 33 33 33 34
43 42 41 40 40 40 39 39 38 37 36 36 34 34 35 34 34 34 34 33 33 32 33 32 33 32 32 32 32 32 32 32 32 32 32 32 32 31 32 32 32 33 33 33 32 33 34 33 38 40 41 41 42 42 40 35 34 33 33 33 33 34
42 41 40 39 38 37 37 37 36 36 35 35 34 35 35 35 34 34 33 33 32 32 32 32 32 32 31 31 31 31 31 31 31 30 31 31 30 30 30 30 31 31 31 32 32 32 32 32 36 40 41 41 41 41 40 35 34 34 33 33 34 34
40 38 37 37 37 36 36 36 35 35 34 34 34 34 35 35 34 33 33 32 31 31 31 31 31 31 30 30 30 29 29 29 28 29 29 29 29 30 30 31 31 31 31 31 31 31 32 33 38 40 40 41 41 41 40 35 34 33 33 33 33 34
40 38 37 37 37 36 35 36 35 34 35 34 34 34 34 34 33 32 32 31 30 30 30 30 30 29 29 29 28 28 27 27 27 28 28 28 28 28 28 29 28 30 30 30 30 31 32 33 38 39 39 40 40 41 36 33 32 32 33 33 34 34
39 37 37 36 35 35 35 35 35 35 34 34 34 34 33 32 32 31 30 30 30 30 29 29 28 27 27 26 26 25 26 26 27 27 27 27 28 28 28 28 29 30 30 31 31 30 31 32 35 38 39 39 41 39 33 32 32 32 32 33 35 35
36 36 36 35 34 34 34 34 35 34 34 33 33 32 32 31 30 30 29 29 29 29 28 28 27 24 24 23 23 24 24 25 25 25 28 27 27 27 28 28 29 29 29 30 30 30 30 31 34 37 38 40 40 39 35 33 32 32 33 34 35 36
36 35 34 34 33 33 33 33 33 33 33 32 31 30 29 28 28 28 28 28 28 28 27 26 25 23 23 22 22 22 22 23 24 26 26 26 25 26 27 29 29 29 28 27 29 31 31 31 33 37 38 40 40 39 34 33 32 32 33 34 34 36
35 33 32 31 31 31 32 32 33 32 31 30 29 28 27 27 27 28 28 28 29 29 27 25 23 21 21 20 20 21 22 23 24 24 24 24 25 25 26 26 27 26 28 29 28 30 31 31 32 34 38 39 40 40 37 35 33 32 33 33 34 33
34 32 30 30 29 30 31 32 32 30 29 28 27 25 26 26 27 28 29 30 29 27 24 22 21 20 20 19 20 21 22 22 22 22 22 23 24 24 24 25 26 27 28 30 29 30 30 31 31 33 37 38 39 40 38 34 33 33 33 33 33 33
29 28 27 27 27 28 29 31 30 29 28 26 24 25 27 27 28 28 28 27 25 23 21 20 20 20 20 20 20 18 19 19 20 21 21 21 22 23 24 24 26 27 28 29 30 30 30 31 32 32 35 37 38 38 39 35 34 35 34 33 33 33
28 27 26 25 25 25 26 28 28 26 25 24 25 27 27 27 27 26 25 23 21 20 19 19 18 19 19 18 19 17 18 19 19 20 21 22 22 23 23 23 24 25 26 27 28 29 29 30 31 33 32 35 36 36 37 37 36 37 35 33 31 32
27 25 24 24 23 23 23 26 26 25 23 23 26 26 25 23 21 20 20 19 18 17 18 19 18 18 18 18 18 18 19 19 19 17 19 21 21 21 22 23 24 24 24 24 25 27 28 29 30 31 32 32 34 35 36 36 36 36 33 32 31 32
25 23 22 22 21 21 22 24 24 23 22 23 24 22 20 19 18 18 17 16 16 16 16 16 16 18 17 18 18 18 19 18 18 19 19 20 20 20 20 21 22 22 22 23 23 25 26 27 27 28 29 31 32 33 34 34 34 34 33 30 30 31
23 21 20 19 20 20 20 20 21 19 21 21 20 19 17 16 15 16 15 15 16 16 14 16 16 17 17 16 16 17 15 17 18 17 17 17 17 18 18 19 20 20 20 21 22 23 24 25 25 25 27 28 29 30 31 32 32 31 32 31 31 32
22 20 19 17 18 19 19 20 20 20 19 18 18 17 15 15 16 16 15 14 16 14 15 16 16 16 15 13 13 14 15 16 15 14 16 16 16 16 16 17 18 19 19 20 20 21 22 22 23 24 25 26 26 26 28 29 29 31 31 30 31 31
23 20 18 17 18 19 19 18 17 17 16 16 15 15 14 14 14 13 12 13 13 15 15 15 19 16 13 14 14 15 15 14 14 14 14 14 15 15 16 17 17 18 18 18 19 20 20 21 22 23 23 24 26 27 28 29 29 28 29 29 29 30
21 19 18 17 17 18 18 16 15 14 13 15 14 13 11 12 13 12 11 12 14 14 16 13 11 11 12 12 13 12 13 14 14 14 13 14 15 13 16 18 18 19 19 19 19 19 18 20 20 22 27 28 29 28 27 26 26 27 27 28 31 29
17 16 15 15 15 16 15 14 13 13 12 12 11 10 9 10 11 10 10 13 12 11 10 9 9 9 11 10 11 12 11 20 22 21 18 14 23 26 27 26 21 21 22 21 21 21 20 20 23 28 29 29 29 29 29 29 29 30 29 30 31 30
15 14 13 13 15 15 14 11 10 9 9 10 11 10 10 11 10 10 11 11 8 10 9 9 8 9 8 10 10 11 11 11 12 20 23 24 23 24 24 25 25 26 26 24 21 23 27 27 27 27 27 27 27 28 28 28 29 29 30 31 28 26
13 12 12 13 14 13 11 9 8 7 7 7 8 10 9 8 9 7 7 7 7 10 10 8 8 8 9 9 9 9 9 8 8 10 18 21 20 21 22 23 24 25 25 25 24 22 21 23 25 26 26 26 26 26 27 27 28 29 29 30 30 25
12 12 11 12 12 10 9 7 6 6 6 7 8 7 5 4 5 3 2 4 7 7 9 9 7 8 7 6 6 6 6 6 6 6 7 11 17 19 20 21 22 22 22 23 23 23 23 22 23 24 25 25 25 25 25 26 28 28 28 28 24 22
11 11 10 10 9 7 6 5 5 5 5 5 4 3 1 1 1 1 2 4 6 5 5 5 5 4 4 5 5 4 5 4 6 5 5 6 8 10 14 18 19 20 20 21 22 22 22 22 23 23 23 24 24 25 25 26 24 26 27 25 20 21
10 9 9 8 7 6 4 3 4 4 4 1 0 -0 -1 -0 2 -0 5 9 9 4 4 4 4 4 3 4 2 2 3 4 5 6 6 6 6 6 7 8 11 15 19 17 18 20 22 22 22 22 22 23 23 24 25 25 19 17 18 20 21 21
8 8 8 6 5 4 3 3 4 3 1 -1 -1 -2 -2 -1 0 1 2 4 5 4 3 2 1 3 2 1 1 2 4 5 5 5 6 6 7 7 6 7 9 10 14 16 18 20 20 21 21 21 22 22 23 23 23 16 14 15 16 17 18 19
MSLP
1018.86 1019.14 1019.38 1019.54 1019.66 1019.78 1019.90 1020.02 1020.10 1020.22 1020.38 1020.58 1020.70 1020.86 1020.98 1021.06 1021.26 1021.46 1021.58 1021.70 1021.82 1021.94 1022.02 1022.06 1022.14 1022.22 1022.26 1022.34 1022.38 1022.46 1022.62 1022.82 1022.94 1023.02 1023.02 1022.94 1022.94 1022.90 1022.94 1022.98 1022.98 1022.94 1022.94 1022.90 1022.94 1022.94 1022.90 1022.86 1022.82 1022.70 1022.62 1022.62 1022.66 1022.70 1022.78 1022.70 1022.66 1022.58 1022.42 1022.30 1022.22 1022.06
1019.10 1019.30 1019.54 1019.74 1019.86 1019.94 1020.06 1020.22 1020.34 1020.46 1020.62 1020.74 1020.94 1021.06 1021.18 1021.26 1021.38 1021.54 1021.62 1021.74 1021.82 1021.98 1022.10 1022.22 1022.26 1022.30 1022.38 1022.46 1022.54 1022.70 1022.90 1023.06 1023.22 1023.42 1023.50 1023.46 1023.26 1023.14 1023.14 1023.14 1023.14 1023.10 1023.10 1023.10 1023.10 1023.06 1023.06 1023.02 1022.94 1022.90 1022.82 1022.74 1022.70 1022.70 1022.74 1022.70 1022.70 1022.70 1022.62 1022.46 1022.34 1022.18
1019.42 1019.62 1019.78 1019.90 1019.94 1020.06 1020.18 1020.30 1020.46 1020.62 1020.78 1020.90 1021.10 1021.22 1021.38 1021.46 1021.58 1021.62 1021.78 1021.90 1022.02 1022.14 1022.30 1022.42 1022.42 1022.46 1022.54 1022.70 1022.90 1023.06 1023.26 1023.38 1023.54 1023.70 1023.74 1023.66 1023.50 1023.34 1023.30 1023.30 1023.34 1023.34 1023.34 1023.30 1023.26 1023.22 1023.18 1023.14 1023.14 1023.18 1023.18 1023.14 1023.10 1023.02 1022.94 1022.90 1022.86 1022.82 1022.66 1022.54 1022.34 1022.26
1019.66 1019.78 1019.82 1019.94 1020.06 1020.22 1020.34 1020.54 1020.66 1020.82 1021.02 1021.22 1021.38 1021.50 1021.66 1021.74 1021.82 1021.90 1022.02 1022.18 1022.34 1022.50 1022.66 1022.74 1022.78 1022.82 1022.98 1023.14 1023.34 1023.50 1023.62 1023.70 1023.82 1023.90 1023.94 1023.98 1023.86 1023.62 1023.54 1023.50 1023.50 1023.46 1023.42 1023.42 1023.42 1023.38 1023.38 1023.38 1023.38 1023.42 1023.42 1023.46 1023.46 1023.38 1023.30 1023.22 1023.18 1023.06 1022.94 1022.82 1022.58 1022.38
1019.62 1019.78 1019.94 1020.14 1020.30 1020.46 1020.62 1020.82 1021.02 1021.22 1021.42 1021.62 1021.82 1021.90 1022.06 1022.10 1022.14 1022.18 1022.34 1022.50 1022.70 1022.90 1023.06 1023.10 1023.14 1023.18 1023.26 1023.38 1023.54 1023.70 1023.86 1024.02 1024.10 1024.18 1024.22 1024.22 1024.02 1023.82 1023.66 1023.58 1023.58 1023.62 1023.62 1023.62 1023.62 1023.58 1023.54 1023.50 1023.50 1023.50 1023.46 1023.50 1023.50 1023.50 1023.46 1023.42 1023.38 1023.26 1023.14 1022.94 1022.74 1022.58
1019.66 1019.86 1020.06 1020.26 1020.46 1020.62 1020.82 1021.10 1021.30 1021.50 1021.70 1021.94 1022.10 1022.22 1022.34 1022.34 1022.34 1022.42 1022.54 1022.78 1022.94 1023.14 1023.26 1023.38 1023.50 1023.50 1023.54 1023.62 1023.78 1023.90 1024.10 1024.26 1024.30 1024.30 1024.26 1024.22 1024.10 1023.94 1023.86 1023.86 1023.90 1023.90 1023.90 1023.86 1023.82 1023.78 1023.70 1023.62 1023.54 1023.50 1023.50 1023.54 1023.54 1023.54 1023.54 1023.50 1023.46 1023.38 1023.26 1023.10 1022.90 1022.70
1019.54 1019.82 1020.10 1020.34 1020.58 1020.78 1020.98 1021.26 1021.50 1021.78 1022.02 1022.14 1022.30 1022.46 1022.58 1022.58 1022.58 1022.62 1022.82 1023.06 1023.26 1023.54 1023.66 1023.82 1023.94 1023.94 1023.98 1024.02 1024.02 1023.98 1024.06 1024.18 1024.26 1024.26 1024.34 1024.42 1024.38 1024.30 1024.26 1024.22 1024.22 1024.18 1024.14 1024.06 1023.94 1023.82 1023.70 1023.66 1023.54 1023.50 1023.50 1023.54 1023.54 1023.50 1023.42 1023.34 1023.30 1023.26 1023.18 1023.06 1022.90 1022.70
1019.62 1019.94 1020.22 1020.50 1020.74 1020.98 1021.22 1021.50 1021.82 1022.10 1022.30 1022.46 1022.62 1022.74 1022.78 1022.82 1022.82 1022.90 1023.14 1023.50 1023.74 1023.94 1024.02 1024.18 1024.18 1024.18 1024.22 1024.30 1024.30 1024.22 1024.14 1024.30 1024.46 1024.58 1024.70 1024.74 1024.66 1024.58 1024.54 1024.46 1024.38 1024.30 1024.22 1024.10 1023.98 1023.86 1023.74 1023.66 1023.58 1023.54 1023.54 1023.50 1023.50 1023.46 1023.38 1023.30 1023.26 1023.18 1023.10 1022.98 1022.78 1022.62
1019.74 1020.10 1020.46 1020.78 1021.02 1021.26 1021.50 1021.78 1022.10 1022.42 1022.58 1022.78 1022.94 1023.02 1022.98 1023.02 1023.10 1023.34 1023.58 1023.82 1023.94 1024.02 1024.22 1024.38 1024.42 1024.46 1024.50 1024.66 1024.78 1024.70 1024.50 1024.54 1024.78 1024.90 1024.94 1024.90 1024.78 1024.74 1024.66 1024.58 1024.50 1024.38 1024.30 1024.14 1024.02 1023.90 1023.78 1023.66 1023.58 1023.54 1023.46 1023.42 1023.42 1023.42 1023.38 1023.30 1023.22 1023.10 1023.02 1022.86 1022.70 1022.50
1019.94 1020.34 1020.70 1021.02 1021.34 1021.58 1021.82 1022.10 1022.34 1022.58 1022.78 1022.98 1023.14 1023.18 1023.18 1023.26 1023.34 1023.50 1023.70 1023.86 1024.02 1024.30 1024.58 1024.66 1024.66 1024.70 1024.86 1025.06 1025.22 1025.14 1024.94 1024.94 1024.98 1025.06 1025.02 1024.94 1024.86 1024.82 1024.78 1024.70 1024.62 1024.50 1024.42 1024.26 1024.10 1023.98 1023.86 1023.70 1023.58 1023.46 1023.38 1023.38 1023.38 1023.38 1023.38 1023.34 1023.18 1023.02 1022.86 1022.70 1022.50 1022.30
1020.02 1020.42 1020.78 1021.14 1021.42 1021.66 1021.98 1022.26 1022.54 1022.74 1022.98 1023.18 1023.38 1023.46 1023.42 1023.42 1023.42 1023.62 1023.90 1024.06 1024.26 1024.62 1024.90 1025.02 1024.98 1024.98 1025.18 1025.42 1025.54 1025.50 1025.34 1025.18 1025.14 1025.10 1025.06 1024.98 1024.94 1024.90 1024.82 1024.78 1024.66 1024.46 1024.26 1024.18 1024.14 1023.98 1023.86 1023.74 1023.62 1023.54 1023.42 1023.34 1023.30 1023.38 1023.34 1023.26 1023.14 1022.98 1022.78 1022.46 1022.22 1021.98
1019.98 1020.42 1020.74 1021.02 1021.30 1021.62 1021.94 1022.30 1022.58 1022.90 1023.10 1023.38 1023.62 1023.66 1023.70 1023.62 1023.74 1023.94 1024.22 1024.42 1024.66 1024.94 1025.18 1025.30 1025.30 1025.30 1025.50 1025.70 1025.78 1025.74 1025.54 1025.26 1025.18 1025.10 1025.06 1025.02 1024.98 1024.90 1024.82 1024.70 1024.66 1024.58 1024.46 1024.34 1024.18 1024.06 1023.98 1023.86 1023.70 1023.54 1023.38 1023.30 1023.30 1023.22 1023.22 1023.14 1023.02 1022.82 1022.62 1022.34 1021.94 1021.54
1019.98 1020.38 1020.62 1020.86 1021.18 1021.54 1021.94 1022.34 1022.66 1022.98 1023.26 1023.54 1023.78 1023.90 1023.98 1024.10 1024.34 1024.50 1024.62 1024.78 1024.98 1025.18 1025.30 1025.42 1025.46 1025.50 1025.62 1025.78 1025.90 1025.78 1025.50 1025.26 1025.10 1025.06 1025.06 1025.02 1024.98 1024.90 1024.86 1024.82 1024.70 1024.66 1024.62 1024.54 1024.42 1024.22 1024.10 1023.94 1023.70 1023.50 1023.34 1023.18 1022.98 1022.98 1022.94 1022.90 1022.74 1022.58 1022.42 1022.14 1021.82 1021.30
1019.86 1020.22 1020.54 1020.94 1021.26 1021.62 1021.98 1022.34 1022.70 1023.06 1023.46 1023.74 1023.98 1024.10 1024.30 1024.62 1024.86 1024.90 1024.98 1025.10 1025.22 1025.30 1025.42 1025.54 1025.54 1025.54 1025.62 1025.70 1025.74 1025.66 1025.54 1025.38 1025.22 1025.18 1025.22 1025.22 1025.10 1025.06 1025.06 1024.98 1024.90 1024.82 1024.70 1024.58 1024.50 1024.38 1024.22 1024.02 1023.70 1023.42 1023.22 1023.02 1022.82 1022.74 1022.66 1022.58 1022.50 1022.26 1022.06 1021.82 1021.50 1021.02
1019.66 1020.10 1020.62 1021.06 1021.38 1021.70 1022.06 1022.34 1022.78 1023.26 1023.66 1023.94 1024.10 1024.22 1024.46 1024.78 1025.02 1025.10 1025.18 1025.34 1025.42 1025.54 1025.54 1025.46 1025.42 1025.50 1025.62 1025.78 1025.86 1025.82 1025.70 1025.54 1025.42 1025.38 1025.38 1025.34 1025.30 1025.26 1025.14 1025.06 1024.98 1024.82 1024.74 1024.62 1024.50 1024.38 1024.26 1024.06 1023.66 1023.38 1023.14 1022.90 1022.70 1022.46 1022.38 1022.26 1022.10 1021.94 1021.62 1021.34 1021.06 1020.66
1019.86 1020.38 1020.70 1021.14 1021.62 1021.98 1022.22 1022.62 1023.06 1023.50 1023.78 1023.94 1024.14 1024.26 1024.50 1024.70 1024.94 1025.02 1025.26 1025.46 1025.70 1025.86 1025.78 1025.42 1025.42 1025.62 1025.82 1025.94 1025.98 1025.90 1025.78 1025.66 1025.66 1025.70 1025.70 1025.58 1025.46 1025.38 1025.30 1025.22 1025.10 1024.94 1024.78 1024.62 1024.50 1024.34 1024.18 1023.94 1023.50 1023.22 1022.94 1022.70 1022.46 1022.22 1022.06 1021.90 1021.70 1021.46 1021.18 1020.90 1020.58 1020.22
1019.98 1020.54 1021.06 1021.50 1021.86 1022.26 1022.54 1023.02 1023.34 1023.54 1023.82 1024.02 1024.22 1024.38 1024.50 1024.70 1024.86 1025.10 1025.34 1025.70 1026.06 1026.18 1025.90 1025.54 1025.50 1025.82 1026.02 1026.14 1026.14 1026.14 1026.06 1025.98 1025.98 1025.98 1025.90 1025.74 1025.62 1025.50 1025.38 1025.22 1025.06 1024.90 1024.74 1024.50 1024.34 1024.18 1023.94 1023.70 1023.34 1022.98 1022.70 1022.50 1022.22 1021.90 1021.70 1021.54 1021.42 1021.18 1020.82 1020.42 1020.10 1019.74
1019.62 1020.34 1021.10 1021.66 1021.94 1022.38 1022.66 1022.94 1023.30 1023.54 1023.86 1024.14 1024.30 1024.38 1024.50 1024.70 1024.98 1025.30 1025.58 1025.98 1026.34 1026.38 1026.14 1025.86 1025.86 1026.10 1026.30 1026.38 1026.46 1026.42 1026.38 1026.34 1026.30 1026.18 1025.98 1025.82 1025.74 1025.62 1025.46 1025.30 1025.14 1024.82 1024.54 1024.34 1024.14 1023.90 1023.54 1023.26 1023.14 1022.82 1022.46 1022.18 1021.98 1021.66 1021.46 1021.34 1021.22 1020.86 1020.42 1019.94 1019.46 1019.14
1020.06 1020.74 1021.18 1021.62 1022.02 1022.26 1022.62 1022.90 1023.30 1023.62 1023.86 1024.10 1024.34 1024.42 1024.66 1024.94 1025.30 1025.66 1025.94 1026.34 1026.58 1026.62 1026.42 1026.18 1026.18 1026.38 1026.54 1026.66 1026.70 1026.70 1026.70 1026.58 1026.46 1026.26 1026.02 1025.90 1025.78 1025.58 1025.34 1025.14 1024.98 1024.74 1024.46 1024.14 1023.98 1023.82 1023.38 1022.90 1022.78 1022.66 1022.30 1021.94 1021.70 1021.54 1021.34 1021.06 1020.86 1020.58 1020.10 1019.54 1018.90 1018.46
1020.62 1021.02 1021.22 1021.62 1022.10 1022.42 1022.62 1022.86 1023.18 1023.50 1023.78 1024.06 1024.34 1024.66 1025.02 1025.42 1025.82 1026.06 1026.30 1026.54 1026.70 1026.78 1026.66 1026.46 1026.46 1026.62 1026.78 1026.90 1026.94 1026.90 1026.86 1026.74 1026.54 1026.30 1026.02 1025.90 1025.70 1025.50 1025.30 1025.10 1024.78 1024.62 1024.50 1024.22 1023.82 1023.62 1023.34 1022.70 1022.30 1022.38 1022.18 1021.86 1021.50 1021.38 1021.18 1020.90 1020.66 1020.18 1019.70 1019.06 1018.50 1017.94
1020.58 1021.14 1021.62 1021.82 1022.18 1022.62 1022.70 1022.78 1023.06 1023.42 1023.82 1024.18 1024.66 1025.14 1025.58 1025.98 1026.26 1026.46 1026.66 1026.78 1026.90 1026.94 1026.86 1026.74 1026.74 1026.86 1027.02 1027.10 1027.10 1027.06 1026.98 1026.74 1026.46 1026.26 1026.10 1025.98 1025.82 1025.66 1025.38 1025.10 1024.86 1024.54 1024.38 1024.14 1023.74 1023.26 1023.14 1022.74 1022.18 1021.94 1021.90 1021.74 1021.46 1021.22 1021.02 1020.78 1020.50 1020.02 1019.38 1018.90 1018.14 1017.58
1020.82 1021.42 1021.78 1022.06 1022.50 1022.66 1022.70 1022.82 1023.14 1023.58 1024.10 1024.66 1025.14 1025.66 1026.10 1026.38 1026.58 1026.74 1026.82 1027.02 1027.14 1027.18 1027.14 1026.98 1027.06 1027.22 1027.30 1027.30 1027.26 1027.14 1026.94 1026.70 1026.46 1026.26 1026.10 1025.98 1025.86 1025.58 1025.38 1025.18 1024.90 1024.50 1024.06 1023.86 1023.62 1023.30 1023.06 1022.78 1022.18 1021.74 1021.58 1021.54 1021.30 1021.02 1020.78 1020.58 1020.30 1019.82 1019.34 1018.90 1018.34 1017.50
1021.02 1021.50 1022.10 1022.54 1022.74 1022.78 1022.82 1023.02 1023.34 1023.98 1024.62 1025.14 1025.70 1026.22 1026.50 1026.74 1026.86 1027.02 1027.22 1027.38 1027.50 1027.54 1027.42 1027.38 1027.42 1027.54 1027.46 1027.34 1027.22 1027.06 1026.90 1026.62 1026.42 1026.30 1026.14 1025.98 1025.78 1025.54 1025.34 1025.06 1024.78 1024.38 1023.94 1023.58 1023.46 1023.26 1022.90 1022.70 1022.34 1021.70 1021.42 1021.30 1021.14 1020.90 1020.78 1020.54 1020.26 1019.82 1019.50 1018.98 1018.22 1017.62
1021.94 1022.38 1022.86 1023.18 1023.22 1023.18 1023.10 1023.30 1023.74 1024.46 1025.06 1025.66 1026.26 1026.66 1026.86 1027.06 1027.26 1027.42 1027.66 1027.78 1027.86 1027.82 1027.74 1027.66 1027.66 1027.54 1027.38 1027.22 1027.10 1026.98 1026.78 1026.62 1026.50 1026.42 1026.22 1026.06 1025.82 1025.58 1025.42 1025.22 1024.94 1024.58 1024.06 1023.50 1023.14 1023.02 1022.74 1022.38 1022.18 1021.82 1021.50 1021.30 1021.02 1020.86 1020.70 1020.54 1020.14 1019.82 1019.34 1018.74 1018.18 1017.46
1022.26 1022.86 1023.42 1023.82 1023.86 1023.78 1023.58 1023.58 1024.14 1024.90 1025.66 1026.38 1026.82 1026.98 1027.14 1027.38 1027.62 1027.90 1027.98 1027.98 1027.98 1027.94 1027.86 1027.74 1027.62 1027.42 1027.18 1027.06 1026.90 1026.86 1026.78 1026.66 1026.54 1026.42 1026.26 1026.10 1025.98 1025.82 1025.62 1025.46 1025.22 1024.90 1024.38 1023.74 1023.10 1022.86 1022.66 1022.38 1022.02 1021.74 1021.54 1021.30 1021.02 1020.70 1020.46 1020.22 1019.86 1019.42 1019.26 1018.90 1018.10 1017.54
1022.66 1023.34 1024.02 1024.38 1024.54 1024.54 1024.38 1024.18 1024.70 1025.58 1026.30 1026.94 1027.06 1027.22 1027.50 1027.90 1028.26 1028.22 1028.10 1028.02 1027.98 1027.94 1027.78 1027.58 1027.34 1027.14 1027.02 1026.94 1026.86 1026.82 1026.74 1026.74 1026.70 1026.70 1026.46 1026.46 1026.38 1026.22 1025.94 1025.78 1025.54 1025.26 1024.82 1024.26 1023.46 1022.74 1022.38 1022.18 1022.06 1021.74 1021.62 1021.30 1020.94 1020.62 1020.34 1019.98 1019.66 1019.50 1019.34 1019.14 1018.58 1017.86
1022.74 1023.58 1024.34 1024.90 1025.18 1025.30 1025.26 1025.14 1025.34 1026.06 1026.66 1027.10 1027.38 1027.78 1028.14 1028.38 1028.34 1028.18 1028.18 1028.10 1027.94 1027.70 1027.46 1027.18 1026.98 1026.94 1026.90 1026.82 1026.78 1026.86 1026.86 1026.86 1026.82 1026.74 1026.74 1026.70 1026.66 1026.54 1026.42 1026.18 1025.98 1025.78 1025.34 1024.78 1024.10 1023.30 1022.50 1022.02 1021.94 1021.74 1021.50 1021.26 1020.98 1020.70 1020.34 1019.98 1019.70 1019.42 1019.34 1018.94 1018.42 1018.10
1023.18 1023.74 1024.50 1025.38 1025.74 1025.94 1026.02 1026.02 1026.14 1026.50 1027.06 1027.54 1028.02 1028.26 1028.42 1028.34 1028.18 1028.06 1027.98 1027.78 1027.38 1027.02 1026.86 1026.90 1026.94 1027.02 1027.02 1027.06 1027.10 1027.18 1027.22 1027.14 1027.10 1027.10 1027.06 1026.94 1026.86 1026.82 1026.74 1026.54 1026.26 1025.98 1025.62 1025.14 1024.50 1023.90 1023.14 1022.42 1022.06 1021.78 1021.42 1021.10 1020.86 1020.58 1020.22 1019.90 1019.62 1019.14 1018.86 1018.70 1018.02 1017.42
1023.30 1024.10 1024.78 1025.50 1026.10 1026.30 1026.42 1026.54 1026.78 1027.18 1027.62 1028.06 1028.26 1028.38 1028.26 1028.10 1027.90 1027.74 1027.38 1027.10 1026.98 1026.98 1026.98 1027.10 1027.10 1027.22 1027.30 1027.34 1027.38 1027.42 1027.34 1027.26 1027.26 1027.26 1027.26 1027.10 1026.98 1026.98 1026.94 1026.78 1026.54 1026.18 1025.74 1025.22 1024.78 1024.26 1023.54 1022.74 1022.26 1021.90 1021.58 1021.18 1020.70 1020.34 1019.86 1019.34 1018.78 1018.50 1018.14 1017.66 1017.18 1016.66
1023.10 1024.10 1024.82 1025.50 1026.14 1026.42 1026.58 1026.94 1027.46 1027.78 1028.02 1028.22 1028.34 1028.26 1028.06 1027.82 1027.54 1027.26 1027.06 1027.02 1027.06 1027.14 1027.30 1027.46 1027.42 1027.54 1027.62 1027.62 1027.50 1027.42 1027.34 1027.30 1027.30 1027.34 1027.34 1027.22 1027.06 1026.90 1026.82 1026.62 1026.54 1026.34 1025.94 1025.50 1025.02 1024.54 1023.78 1022.98 1022.42 1022.14 1021.82 1021.30 1020.94 1020.18 1019.70 1019.22 1018.66 1018.18 1017.94 1017.46 1016.94 1016.46
1023.50 1024.26 1024.94 1025.70 1026.22 1026.50 1026.74 1027.34 1027.78 1028.06 1028.18 1028.26 1028.26 1028.18 1027.90 1027.50 1027.26 1027.18 1027.06 1027.14 1027.34 1027.46 1027.62 1027.78 1027.82 1027.86 1027.86 1027.78 1027.74 1027.74 1027.62 1027.46 1027.34 1027.22 1027.30 1027.18 1026.94 1026.98 1026.70 1026.54 1026.34 1026.14 1026.02 1025.86 1025.50 1025.14 1024.58 1023.58 1022.70 1022.02 1022.02 1021.66 1021.22 1020.86 1020.22 1019.54 1019.06 1018.58 1017.98 1017.58 1016.94 1015.94
1023.90 1024.62 1025.42 1026.10 1026.42 1026.58 1026.98 1027.54 1027.90 1028.10 1028.26 1028.26 1028.18 1027.98 1027.70 1027.46 1027.34 1027.18 1027.34 1027.54 1027.70 1027.74 1028.02 1028.10 1028.14 1028.10 1028.06 1027.98 1027.90 1027.82 1027.74 1027.50 1027.22 1027.06 1026.98 1027.02 1026.90 1026.62 1026.58 1026.58 1026.46 1026.14 1025.82 1025.42 1025.14 1025.22 1025.02 1024.42 1023.42 1022.54 1021.98 1021.58 1021.02 1020.38 1019.90 1019.42 1018.94 1018.58 1018.14 1017.46 1016.74 1016.14
1024.66 1025.18 1025.74 1026.18 1026.38 1026.58 1027.14 1027.70 1028.02 1028.18 1028.22 1028.22 1028.10 1028.06 1027.94 1027.66 1027.42 1027.50 1027.74 1027.90 1028.10 1028.14 1028.26 1028.42 1028.46 1028.38 1028.26 1028.18 1028.14 1028.10 1027.78 1027.50 1027.46 1027.22 1026.82 1026.82 1026.74 1026.74 1026.74 1026.46 1026.30 1026.26 1026.14 1025.82 1025.10 1024.42 1024.30 1023.94 1023.66 1023.38 1022.82 1022.14 1021.42 1020.78 1019.98 1019.10 1018.38 1017.94 1017.54 1017.06 1016.30 1015.54
1024.94 1025.30 1025.70 1026.14 1026.38 1026.82 1027.42 1027.82 1028.06 1028.22 1028.26 1028.30 1028.30 1028.26 1028.14 1027.90 1027.90 1027.90 1028.06 1028.26 1028.46 1028.58 1028.70 1028.70 1028.62 1028.50 1028.46 1028.50 1028.50 1028.46 1028.46 1028.34 1027.46 1026.94 1026.94 1026.70 1026.90 1027.06 1026.82 1026.46 1026.30 1026.10 1025.90 1025.70 1025.58 1025.10 1024.18 1023.62 1023.18 1022.78 1022.50 1022.10 1021.66 1021.06 1020.34 1019.46 1018.58 1017.78 1017.22 1016.74 1016.46 1015.86
1025.02 1025.54 1025.94 1026.22 1026.58 1027.06 1027.50 1027.86 1028.18 1028.34 1028.42 1028.42 1028.34 1028.34 1028.34 1028.30 1028.26 1028.22 1028.46 1028.70 1028.78 1028.98 1029.02 1028.90 1028.78 1028.70 1028.74 1028.86 1028.90 1029.02 1028.90 1028.70 1028.78 1027.98 1026.78 1026.46 1026.90 1026.66 1026.34 1026.50 1026.54 1026.42 1026.22 1026.06 1025.94 1025.78 1025.38 1024.50 1023.58 1022.86 1022.18 1021.66 1021.26 1020.78 1020.22 1019.54 1018.78 1018.06 1017.46 1016.94 1016.50 1016.02
1025.30 1025.70 1025.98 1026.34 1026.74 1027.18 1027.58 1027.98 1028.22 1028.42 1028.46 1028.50 1028.54 1028.54 1028.50 1028.46 1028.54 1028.74 1028.90 1028.98 1029.06 1029.22 1029.22 1029.06 1028.98 1029.06 1029.18 1029.18 1029.26 1029.26 1029.10 1029.18 1028.86 1028.82 1028.74 1027.70 1026.18 1025.90 1026.34 1026.62 1026.58 1026.38 1025.94 1025.58 1025.14 1024.94 1024.86 1024.54 1024.02 1023.46 1022.86 1022.10 1021.30 1020.62 1019.90 1019.22 1018.66 1018.38 1018.10 1017.82 1017.22 1016.42
1025.26 1025.70 1026.14 1026.50 1026.90 1027.34 1027.70 1027.98 1028.18 1028.34 1028.46 1028.54 1028.54 1028.46 1028.38 1028.50 1028.70 1028.86 1028.94 1028.90 1029.06 1029.26 1029.34 1029.22 1029.22 1029.34 1029.38 1029.42 1029.38 1029.26 1029.26 1029.14 1028.98 1028.94 1028.70 1028.38 1028.34 1027.82 1026.90 1026.22 1026.10 1026.30 1026.46 1026.02 1025.34 1024.58 1024.18 1023.98 1023.70 1023.26 1022.82 1022.30 1021.54 1020.74 1019.90 1019.26 1018.78 1018.18 1017.66 1017.34 1016.98 1016.34
1025.42 1025.82 1026.18 1026.70 1027.10 1027.46 1027.74 1027.94 1028.10 1028.30 1028.38 1028.38 1028.34 1028.26 1028.34 1028.54 1028.74 1028.94 1029.10 1029.14 1029.18 1029.42 1029.42 1029.42 1029.46 1029.42 1029.42 1029.42 1029.26 1029.18 1029.10 1029.02 1029.06 1028.94 1028.78 1028.82 1028.74 1028.38 1027.78 1027.02 1026.50 1026.14 1025.90 1025.82 1025.46 1024.90 1024.18 1023.58 1023.22 1022.82 1022.38 1021.98 1021.46 1020.94 1020.34 1019.90 1019.22 1018.50 1017.74 1017.22 1016.66 1016.22
Wind_Speed
5 5 5 5 5 5 5 5 5 6 6 6 6 6 5 5 5 5 5 4 4 4 4 5 5 5 4 4 4 4 5 5 6 5 5 6 6 6 5 5 4 4 5 4 4 5 4 4 4 4 3 3 4 4 5 6 6 6 7 6 7 7
5 5 5 5 5 5 5 5 5 6 5 6 6 6 5 6 6 5 6 5 5 5 5 5 5 4 5 4 5 6 6 5 5 6 6 5 4 4 4 4 4 5 5 4 4 4 4 4 5 5 5 5 4 4 4 5 5 6 7 7 6 6
5 5 5 5 5 5 5 5 6 5 6 6 6 7 6 7 6 6 5 5 6 7 7 6 5 6 6 7 7 7 6 6 6 5 4 4 5 4 4 4 4 4 4 4 5 5 5 5 6 6 6 6 6 6 5 5 5 6 6 6 8 6
5 5 4 4 5 5 6 6 6 7 7 6 7 7 6 6 6 5 5 5 6 7 6 6 5 6 7 7 7 7 6 5 5 5 5 5 4 4 4 4 4 4 5 5 5 5 5 4 4 4 4 5 6 6 5 6 6 7 7 7 8 7
5 5 5 5 6 6 6 6 6 6 6 7 6 7 6 5 5 5 6 6 7 6 5 6 6 6 6 7 6 7 6 5 4 4 4 4 4 5 5 5 6 5 5 5 5 5 4 4 4 4 4 4 4 6 6 5 6 7 7 8 8 8
5 5 5 6 5 5 6 6 6 6 6 6 6 7 6 5 5 5 6 6 7 6 6 7 6 7 6 7 6 6 5 4 4 4 5 5 5 7 7 5 5 5 5 4 4 4 4 4 4 4 4 4 4 4 5 6 6 6 7 7 8 8
5 5 5 5 5 5 6 6 6 6 6 5 6 6 5 5 5 6 6 6 7 7 7 6 5 6 6 5 5 5 5 5 5 5 5 6 6 5 5 5 5 4 4 5 4 5 5 5 5 5 4 4 4 4 5 5 5 6 7 7 8 8
5 5 5 5 5 6 6 6 6 6 6 6 5 5 5 5 5 6 7 6 6 6 7 6 6 7 6 6 6 6 6 6 6 5 5 4 4 4 4 4 4 4 4 4 4 4 5 4 4 4 4 4 4 4 4 5 5 6 7 8 8 8
6 6 5 5 5 5 5 5 5 5 6 6 5 4 5 5 5 6 6 6 6 7 7 6 6 6 6 6 5 5 5 5 5 4 4 4 4 4 4 4 4 5 4 5 4 5 5 5 4 4 4 4 4 4 5 6 6 7 6 7 8 8
6 6 6 6 6 6 6 5 5 5 5 6 5 4 5 4 5 6 6 6 7 7 6 5 5 5 5 4 4 4 4 4 4 3 3 3 4 4 4 5 5 4 4 4 4 5 5 5 5 5 5 4 4 5 5 6 7 8 8 8 8 8
7 7 7 7 7 7 6 6 6 5 5 5 5 4 4 4 6 7 7 7 7 6 4 4 4 4 4 4 3 3 4 4 3 4 4 4 4 4 4 4 4 5 6 6 6 6 6 7 7 5 6 7 7 5 6 6 7 8 9 9 9 9
8 8 8 7 7 7 6 6 6 5 6 5 4 5 4 5 6 6 6 7 6 4 4 4 3 4 3 3 3 3 3 3 4 4 4 4 4 4 5 5 5 5 6 7 7 6 6 6 5 7 13 11 7 6 6 6 7 7 8 9 10 10
8 8 8 8 7 7 7 6 6 6 6 6 5 5 4 5 5 5 5 6 4 4 4 3 2 2 3 2 2 3 4 5 4 5 5 6 5 6 6 6 6 6 5 5 5 6 6 6 6 12 13 13 14 9 7 6 8 7 7 8 9 11
10 10 9 8 8 7 7 7 6 6 6 5 5 4 4 4 4 5 5 4 4 4 3 2 2 3 3 4 4 4 5 5 6 6 6 6 6 6 5 5 5 5 5 5 4 5 6 7 10 14 14 14 14 13 9 7 7 8 8 8 10 11
10 10 9 8 8 8 6 7 8 7 6 6 4 4 5 4 4 4 5 4 4 4 3 3 4 4 4 5 4 4 5 5 5 6 6 6 5 4 5 5 6 6 5 5 5 6 6 6 10 13 14 14 15 15 12 8 8 8 9 9 10 11
8 8 8 8 8 7 6 7 7 7 5 5 4 5 5 5 4 5 5 5 4 3 3 4 5 5 4 4 4 5 5 5 6 5 4 4 4 4 5 5 5 5 5 5 6 6 6 7 10 13 14 15 15 15 13 7 9 9 10 10 10 10
10 10 9 9 9 8 8 8 6 6 5 5 5 4 6 5 6 5 5 5 4 3 3 4 5 5 5 5 5 5 5 5 4 4 5 4 4 5 5 6 6 6 5 6 6 6 7 7 11 14 14 14 16 17 13 8 8 9 10 10 10 11
14 13 10 8 9 7 7 8 6 7 6 5 5 5 5 6 6 5 5 4 3 3 4 4 4 4 4 4 4 4 5 4 4 5 4 3 4 4 4 4 4 6 7 6 6 7 9 7 10 13 14 16 14 16 10 7 8 9 10 11 11 11
11 10 10 9 8 9 7 6 7 7 6 6 5 6 6 6 6 4 4 3 3 3 3 4 4 4 4 4 4 4 4 4 5 4 3 4 4 5 5 5 5 5 7 8 7 7 9 9 9 11 15 16 16 12 8 8 8 9 11 12 13 12
10 9 11 11 9 7 6 6 7 7 7 6 6 6 6 6 5 4 3 2 2 2 3 3 4 3 4 3 4 4 4 4 3 3 4 5 6 7 6 6 7 6 5 7 9 7 8 11 12 12 12 15 16 13 9 9 9 11 11 13 13 12
12 11 10 10 10 6 6 7 8 8 7 6 6 6 5 4 3 3 2 2 2 2 3 3 4 4 3 4 4 4 4 4 4 4 4 4 4 5 6 6 7 7 6 5 8 11 9 9 13 15 13 15 15 13 8 8 8 11 12 12 14 14
14 11 10 10 8 6 6 6 8 7 8 7 6 6 4 3 3 2 2 2 3 3 3 3 4 3 2 3 3 4 4 4 4 5 5 5 5 6 5 5 6 8 8 6 6 8 8 9 11 13 17 16 17 18 13 9 10 12 13 13 14 16
10 11 10 8 7 6 6 8 9 8 7 7 6 4 3 3 3 3 3 3 3 3 3 3 2 1 3 3 3 3 3 3 4 5 5 6 5 5 6 7 8 8 10 9 7 7 8 7 10 13 18 18 18 20 17 10 12 12 12 13 15 14
11 11 10 7 7 5 6 8 9 8 7 6 5 4 3 2 2 2 1 0 1 1 1 0 1 2 2 2 2 3 4 4 3 4 5 5 6 8 9 7 8 9 11 11 10 8 9 10 13 12 15 18 20 20 22 13 11 13 13 14 14 15
11 10 9 6 6 5 4 8 9 7 6 6 4 4 3 2 1 1 1 1 1 0 1 1 1 1 1 2 3 4 4 4 5 6 5 6 7 8 8 8 8 9 11 12 11 9 9 10 11 15 14 18 22 23 22 22 17 21 14 12 14 14
10 10 8 7 6 5 4 7 9 8 7 6 5 4 3 2 1 1 1 1 1 2 1 1 1 1 2 4 4 4 5 7 5 5 6 6 7 7 9 8 8 9 10 12 13 13 12 10 9 13 17 17 22 23 24 24 23 22 15 15 14 14
13 11 9 7 8 6 5 4 9 10 8 6 4 2 1 1 2 2 2 2 1 0 0 2 3 4 5 5 6 7 7 6 6 7 6 6 6 6 7 8 7 8 10 11 12 13 14 13 12 12 14 19 19 22 23 23 26 27 27 19 14 15
11 11 11 8 7 6 5 5 6 8 7 5 3 1 1 2 2 2 2 1 1 3 4 5 4 5 6 6 6 5 4 5 6 6 6 6 6 5 6 8 8 8 9 10 11 13 14 15 13 13 13 13 14 15 20 27 27 28 28 25 21 27
11 10 10 9 6 5 5 5 5 6 5 4 3 1 1 2 2 2 2 4 5 4 5 6 6 6 5 5 4 4 3 5 4 3 4 6 6 6 5 5 7 8 9 11 11 12 14 15 14 13 12 12 13 13 14 16 17 22 24 17 14 16
11 11 9 8 7 6 6 6 6 5 4 3 1 0 1 1 1 3 4 4 4 4 5 6 7 6 5 5 6 6 6 4 4 4 5 5 6 7 7 7 7 8 10 11 12 13 14 15 14 13 13 15 15 15 13 13 13 12 10 13 12 13
10 10 10 8 7 7 7 7 5 4 3 2 1 0 1 2 3 3 4 4 5 5 5 4 4 4 5 5 4 4 4 6 5 5 4 4 4 3 6 8 8 8 7 8 10 11 13 15 16 15 19 23 26 23 18 16 14 15 15 19 30 23
9 10 9 8 7 6 7 7 5 3 2 2 1 2 3 2 2 4 4 4 4 4 4 3 3 4 4 5 5 6 3 5 8 7 5 4 5 10 12 9 8 10 10 11 9 7 10 12 16 28 34 32 33 34 34 31 31 29 24 28 35 26
8 9 9 8 7 6 7 6 4 3 3 2 2 2 1 1 3 4 4 4 4 4 2 2 3 3 3 5 4 5 8 8 2 6 9 7 6 8 10 13 16 16 15 12 13 15 24 25 27 28 29 32 31 32 33 34 34 33 32 32 24 17
9 9 9 8 7 7 7 6 4 3 3 2 1 2 1 3 3 4 4 4 2 2 2 2 2 2 3 4 5 6 6 8 12 8 1 2 6 7 9 11 13 14 16 19 18 17 16 23 29 31 29 29 30 30 31 32 34 34 34 32 30 15
8 7 7 7 8 7 6 6 5 3 2 2 1 2 3 3 5 5 3 2 1 2 3 2 2 3 4 4 5 5 5 7 6 11 15 4 1 6 10 8 9 13 16 19 20 21 21 23 27 31 32 32 31 31 30 31 32 31 32 32 17 11
8 8 8 8 8 8 7 6 5 4 3 3 2 3 3 5 5 3 1 1 1 1 2 1 2 3 3 3 3 3 4 3 5 7 6 12 17 9 1 2 6 15 21 23 26 25 23 22 24 26 28 30 31 32 31 29 24 27 27 22 15 14
9 8 8 9 8 7 7 6 5 4 4 3 3 4 4 4 3 2 2 1 0 0 1 1 1 1 1 2 2 3 3 4 5 4 6 9 9 11 15 15 11 9 14 18 19 24 26 25 25 26 26 27 28 28 30 29 17 15 13 11 10 12
8 8 8 7 7 8 7 6 6 5 4 3 4 5 4 3 2 1 0 1 1 0 0 1 1 1 1 1 2 2 3 4 4 6 6 6 5 9 12 12 12 12 13 19 19 22 25 28 28 27 27 25 25 25 26 15 14 12 12 11 11 11
Wind_Direction
85 84 87 78 79 81 85 80 76 72 71 76 89 95 99 104 99 95 84 89 98 98 88 82 71 63 62 56 50 56 51 36 24 18 10 17 13 21 17 12 4 1 355 355 348 346 340 341 332 315 294 285 298 310 311 317 321 317 311 312 313 309
83 88 88 82 79 83 80 82 77 73 76 82 79 74 72 72 75 82 82 74 80 78 72 61 67 66 71 60 52 54 48 40 31 24 15 352 354 19 17 14 9 3 359 347 343 342 344 347 340 343 339 332 313 304 306 307 319 309 300 301 299 300
89 84 88 86 80 74 74 72 73 71 65 63 63 72 64 62 59 64 65 69 67 71 67 61 53 50 54 55 48 53 43 37 38 20 349 351 6 21 18 16 11 3 358 354 351 355 351 352 352 355 355 353 343 338 333 327 323 313 308 310 306 304
92 93 89 82 79 72 70 65 67 61 60 59 59 60 56 61 53 62 67 65 67 67 65 61 57 61 63 62 53 51 44 35 35 14 9 12 350 18 26 22 5 9 5 0 352 352 352 349 352 350 0 348 337 327 330 327 323 316 310 311 304 307
115 108 98 91 87 84 77 70 68 68 64 62 60 66 55 55 61 63 68 71 70 69 67 66 61 65 72 70 57 54 42 31 24 13 19 3 2 11 25 12 12 3 359 352 345 343 338 334 330 331 341 331 328 325 324 325 322 314 311 309 304 306
108 100 98 91 84 85 84 82 77 71 68 69 68 64 54 50 53 64 68 67 68 63 62 59 54 58 61 67 65 64 53 40 35 17 29 15 12 15 5 9 5 360 353 348 340 335 331 333 330 330 337 323 320 315 311 313 308 303 301 299 300 302
117 114 109 104 97 91 86 87 84 79 73 69 72 66 57 54 52 67 69 68 68 58 60 58 53 59 55 58 55 58 50 38 29 22 24 16 9 0 4 355 357 356 350 343 333 329 331 323 321 322 318 311 295 290 291 295 296 297 297 294 293 293
120 111 110 102 97 97 94 89 88 86 79 72 69 75 64 57 62 67 72 71 76 69 62 54 50 47 47 42 39 40 42 39 30 20 5 13 358 356 356 355 345 350 337 332 322 319 314 314 314 311 306 307 314 308 301 298 299 299 298 296 294 294
131 124 107 102 96 91 89 95 97 93 90 80 69 68 72 69 77 78 81 76 75 68 54 48 47 45 40 38 32 28 37 39 27 14 2 352 6 10 359 350 351 333 332 316 321 321 317 318 319 321 317 316 315 313 315 314 308 303 302 297 294 293
132 124 120 111 106 99 91 90 95 99 95 91 76 64 66 71 85 82 77 72 67 62 54 46 45 46 41 37 31 26 32 38 25 7 352 10 12 7 1 352 345 329 338 335 339 333 335 334 336 331 328 323 323 326 318 312 307 304 301 297 293 289
144 134 129 127 121 118 116 109 100 90 83 80 75 66 62 72 83 79 75 70 67 59 54 45 41 44 46 34 29 24 23 32 19 9 10 11 9 2 358 354 353 353 353 352 350 344 341 343 334 332 330 330 324 322 312 306 299 297 297 297 293 288
145 140 135 134 131 126 118 109 104 99 96 87 70 62 43 64 69 82 79 76 74 65 59 56 46 61 57 40 21 20 15 27 20 21 19 11 6 2 358 359 357 1 354 344 338 337 335 326 317 313 315 313 308 305 296 293 290 288 288 289 290 287
142 140 139 138 132 128 122 118 113 103 92 85 76 62 47 67 81 83 89 87 86 83 73 63 50 72 66 49 23 8 21 18 17 22 18 12 4 2 357 353 350 346 338 331 324 322 319 313 309 306 305 305 306 306 297 288 287 281 278 278 281 285
151 149 144 136 129 124 125 123 115 104 98 95 90 85 72 80 91 94 88 89 86 82 82 76 67 59 42 32 18 16 13 14 17 17 11 3 356 348 348 345 331 323 319 315 312 308 303 301 298 301 301 303 303 302 296 288 283 284 279 277 278 280
155 148 140 135 131 125 126 122 115 113 118 114 123 104 98 100 97 92 81 70 69 61 59 58 55 43 35 23 12 7 10 15 15 11 2 350 332 333 342 328 326 317 313 307 305 300 295 288 290 292 295 297 298 298 297 286 280 281 282 281 277 278
142 139 136 130 123 117 112 110 115 120 123 121 109 103 104 99 83 79 75 62 47 37 39 51 52 39 24 11 8 8 8 11 8 353 336 322 326 332 321 317 310 304 302 298 292 289 283 283 285 288 291 294 294 294 294 282 283 280 279 280 279 278
137 132 128 128 127 121 113 109 117 117 106 105 101 99 98 89 79 65 62 58 30 14 24 41 47 35 16 6 5 4 4 357 346 340 322 316 314 317 314 311 312 301 295 295 290 285 285 275 281 287 292 294 296 296 296 284 282 282 281 279 275 273
153 144 135 128 122 121 119 126 125 112 111 106 100 92 86 84 74 58 52 48 21 11 19 41 46 27 17 2 1 359 351 345 333 321 309 312 306 292 290 291 280 293 299 294 297 301 296 288 285 292 295 298 294 296 295 286 281 284 285 285 284 279
129 130 125 122 121 122 125 125 120 118 112 103 94 87 79 76 71 59 53 56 15 7 17 34 45 21 15 2 357 347 342 334 322 312 303 317 311 315 317 311 303 297 302 304 302 298 295 295 291 291 295 297 299 301 294 293 288 284 286 288 290 287
115 119 124 121 113 118 124 124 123 117 110 103 95 86 77 75 73 68 52 44 18 11 29 37 44 24 11 4 344 332 320 307 295 299 325 334 327 326 318 311 309 302 295 298 296 288 291 296 298 297 294 298 303 306 299 295 296 293 294 294 292 294
128 125 116 115 115 117 118 120 115 111 106 100 97 92 91 86 73 60 38 17 11 27 29 35 40 24 11 347 318 315 309 308 313 315 324 322 312 303 301 307 308 304 297 281 286 296 296 296 302 306 308 310 312 315 305 299 294 298 299 303 301 300
121 118 118 117 119 118 112 113 112 109 108 104 101 101 98 88 71 45 26 21 25 29 25 16 47 1 339 300 299 297 296 300 322 327 330 322 310 307 312 307 308 309 311 311 299 303 302 304 305 309 314 320 321 321 320 313 310 306 306 305 302 303
119 119 116 113 110 105 110 114 113 113 111 109 105 102 86 63 45 35 26 16 21 30 26 14 26 319 292 279 281 298 312 325 330 328 332 327 323 324 328 333 327 321 317 318 315 307 306 302 306 309 316 321 322 321 324 314 308 304 303 302 299 296
110 103 91 83 87 86 105 118 116 116 113 108 105 99 75 56 47 25 355 353 53 54 348 306 283 264 254 278 317 345 343 330 338 334 329 330 338 340 338 336 333 329 322 320 318 317 314 314 311 312 316 320 321 319 318 314 304 303 303 302 295 295
116 107 104 90 78 74 87 118 118 115 109 112 117 103 108 103 62 337 266 150 148 212 222 240 249 272 287 348 354 2 354 348 358 352 350 353 349 343 340 340 336 330 324 319 317 316 314 315 314 316 319 321 319 318 318 315 311 311 308 303 300 299
113 108 96 91 80 70 69 116 123 121 122 129 129 129 106 62 316 260 229 196 204 207 214 233 289 357 16 6 5 11 7 0 358 358 352 358 349 342 337 338 337 330 326 323 318 318 318 317 316 317 320 319 319 321 320 319 319 322 322 317 310 311
125 115 101 90 84 73 73 91 122 127 124 130 115 115 112 223 243 217 194 194 205 208 182 11 23 28 16 11 14 11 360 354 357 355 355 356 344 342 335 329 335 330 320 317 315 316 316 318 321 318 319 318 318 319 318 319 318 316 315 309 300 296
116 116 113 95 86 88 83 83 106 116 126 111 108 129 184 237 221 187 172 176 49 24 27 28 26 28 16 12 14 11 349 342 342 344 335 339 332 337 334 326 329 324 319 313 315 316 314 315 318 318 319 319 318 318 317 315 313 311 310 307 300 300
125 124 122 116 113 109 106 105 92 94 106 110 119 144 233 233 172 146 83 45 36 21 30 32 20 13 5 1 357 352 340 332 327 328 328 325 325 324 323 320 323 322 319 317 317 316 314 313 315 318 319 322 322 319 314 312 311 311 311 308 303 303
133 132 123 123 131 129 126 106 102 104 104 105 124 228 224 142 101 75 48 42 49 35 41 30 15 6 352 348 348 343 337 333 324 320 314 314 314 321 322 323 323 322 319 316 317 316 314 312 314 317 323 323 321 318 318 316 315 316 317 312 308 304
132 132 128 124 131 136 125 117 114 108 114 120 109 130 106 80 55 56 54 54 50 42 35 18 1 347 343 333 336 321 302 307 309 300 277 255 237 246 300 314 311 307 302 300 307 314 312 312 313 315 317 316 316 316 316 315 315 315 313 312 313 310
131 132 131 130 138 138 127 124 120 118 110 101 81 68 78 79 81 74 61 62 42 41 20 357 346 338 342 336 331 328 312 305 311 300 298 288 292 311 311 309 309 313 316 312 301 294 299 302 305 311 316 317 318 318 317 314 313 313 313 313 314 311
131 129 131 140 145 137 126 127 126 114 100 78 72 78 101 114 95 89 72 61 37 18 7 352 333 325 337 338 345 341 336 328 330 306 292 300 319 326 319 315 313 315 318 320 317 317 314 309 310 313 315 316 317 318 318 317 317 317 318 318 317 312
148 149 146 145 143 131 129 126 117 104 95 101 123 136 91 75 99 90 60 48 17 8 358 329 322 341 6 1 5 355 346 341 329 339 214 256 340 325 322 322 330 335 338 335 328 322 316 317 317 318 318 319 319 319 319 318 318 319 321 322 323 313
148 140 141 142 139 134 135 129 125 123 130 138 123 101 90 78 77 74 49 24 33 21 336 334 0 15 15 6 356 352 349 343 353 337 331 334 135 325 328 350 355 345 335 329 324 320 314 313 315 318 319 320 320 320 320 318 318 320 323 326 324 312
142 146 146 143 140 141 139 139 139 142 143 110 91 93 97 79 73 76 93 50 11 356 322 349 18 26 12 353 348 335 339 345 338 331 326 328 333 350 111 140 350 340 335 330 326 323 320 318 318 318 318 318 318 319 320 322 322 322 322 323 316 313
145 145 145 146 145 144 145 146 150 146 135 121 115 96 81 75 73 62 359 332 317 223 261 347 31 25 354 335 336 331 343 334 331 333 335 334 333 326 325 328 328 332 334 327 323 322 323 323 322 320 319 319 319 320 323 326 322 319 319 316 306 304
144 144 145 146 148 150 149 155 150 139 133 119 104 91 80 84 79 72 291 274 178 87 34 21 51 325 312 295 301 310 324 321 325 333 327 323 310 314 317 316 319 319 322 320 320 320 323 325 325 324 324 325 326 326 329 323 317 312 310 309 308 306